Red Bluff, CA

12:56 AM PST on November 20, 2019 (GMT -0800)
Red Bluff Municipal

Weather History for KRBL - September, 2019

Change the Weather History Date:

Thursday, September 26, 2019

  Actual Average Record
Temperature  
Mean Temperature 82 °F -  
Max Temperature 97 °F 86 °F 107 °F (1944)
Min Temperature 69 °F 57 °F 48 °F (1986)
Cooling Degree Days 18    
Growing Degree Days 32 (Base 50)    
Moisture  
Dew Point 47 °F    
Average Humidity 28    
Maximum Humidity 55    
Minimum Humidity 10    
Precipitation  
Precipitation 0.00 in - - ()
Sea Level Pressure  
Sea Level Pressure 29.78 in    
Wind  
Wind Speed 9 mph (ESE)    
Max Wind Speed 16 mph    
Max Gust Speed -    
Visibility 10 miles    
Events      
Averages and records for this station are not official NWS values.
T = Trace of Precipitation, MM = Missing Value Source: NWS Daily Summary

Daily Weather History Graph

Daily Weather History Graph

Search for Another Location

Airport or City:

Astronomy

Sep. 26, 2019 Rise Set
Actual Time 7:00 AM PDT 6:59 PM PDT
Civil Twilight 6:33 AM PDT 7:26 PM PDT
Nautical Twilight 6:01 AM PDT 7:58 PM PDT
Astronomical Twilight 5:29 AM PDT 8:30 PM PDT
Moon 4:13 AM PDT (9/26) 6:16 PM PDT (9/26)
Length of Visible Light 12h 53m
Length of Day
11h 59m
Waning Crescent, 6% of the Moon is Illuminated
Sep 26
Waning Crescent
Sep 28
New
Oct 5
First Quarter
Oct 13
Full
Oct 21
Last Quarter

Hourly Weather History & Observations

Time (PDT) Temp. Heat Index Dew Point Humidity Pressure Visibility Wind Dir Wind Speed Gust Speed Precip Events Conditions
12:54 AM 82.0 °F - 44.1 °F 26% 29.77 in 10.0 mi NNW 8.1 mph - N/A   Clear
1:54 AM 80.1 °F - 44.1 °F 28% 29.78 in 10.0 mi NNW 6.9 mph - N/A   Clear
2:54 AM 79.0 °F - 43.0 °F 28% 29.77 in 10.0 mi NW 8.1 mph - N/A   Clear
3:54 AM 77.0 °F - 43.0 °F 30% 29.77 in 10.0 mi NNW 5.8 mph - N/A   Clear
4:54 AM 78.1 °F - 43.0 °F 29% 29.77 in 10.0 mi NW 9.2 mph - N/A   Clear
5:54 AM 73.9 °F - 43.0 °F 33% 29.78 in 10.0 mi North 3.5 mph - N/A   Clear
6:54 AM 71.1 °F - 44.1 °F 38% 29.78 in 10.0 mi Calm Calm - N/A   Clear
7:54 AM 75.0 °F - 43.0 °F 32% 29.79 in 10.0 mi NW 6.9 mph - N/A   Clear
8:54 AM 80.1 °F - 44.1 °F 28% 29.81 in 10.0 mi North 6.9 mph - N/A   Clear
9:54 AM 84.9 °F - 42.1 °F 22% 29.81 in 10.0 mi North 9.2 mph - N/A   Clear
10:54 AM 91.0 °F - 41.0 °F 17% 29.81 in 10.0 mi North 10.4 mph - N/A   Clear
11:54 AM 91.9 °F - 42.1 °F 18% 29.80 in 10.0 mi Calm Calm - N/A   Clear
12:54 PM 93.0 °F - 45.0 °F 19% 29.79 in 10.0 mi SE 6.9 mph - N/A   Clear
1:54 PM 95.0 °F - 46.0 °F 19% 29.76 in 10.0 mi SSE 11.5 mph - N/A   Clear
2:54 PM 96.1 °F - 48.9 °F 20% 29.74 in 10.0 mi SE 9.2 mph - N/A   Clear
3:54 PM 96.1 °F - 48.9 °F 20% 29.73 in 10.0 mi SE 12.7 mph - N/A   Clear
4:54 PM 95.0 °F 92.5 °F 53.1 °F 24% 29.72 in 10.0 mi SSE 15.0 mph - N/A   Clear
5:54 PM 91.9 °F 90.0 °F 55.0 °F 29% 29.73 in 10.0 mi SSE 16.1 mph - N/A   Clear
6:54 PM 88.0 °F 86.9 °F 57.9 °F 36% 29.74 in 10.0 mi SSE 11.5 mph - N/A   Clear
7:54 PM 84.9 °F 83.9 °F 57.0 °F 38% 29.75 in 10.0 mi SSE 11.5 mph - N/A   Clear
8:54 PM 82.9 °F 82.6 °F 57.9 °F 42% 29.78 in 10.0 mi SSE 16.1 mph - N/A   Clear
9:54 PM 80.1 °F 80.6 °F 57.9 °F 47% 29.80 in 10.0 mi South 16.1 mph - N/A   Clear
10:54 PM 75.0 °F - 57.9 °F 55% 29.82 in 10.0 mi South 15.0 mph - N/A   Clear